CES586 KLAX-ZSPD

Flight info

Callsign CES586
Flight time N/A
Altitude FL280
Route SUMMR2 RIZIN FLW RGOOD OAK AMAKR REDWD 43N134W 46N140W 50N150W 53N160W ALEUT 55N180E NATES R220 NODAN R217 GTC Y142 SAMON Y14 DGC Y28 ISAKY Y592 ONIKU A593 PUD
Aircraft B77W/H-SDE1E2E3FGHIJ2J3J4J5M1RWXY/LB1D1

Departure

Time N/A
Airport Los Angeles International Airport (KLAX)

Arrival

Time 2026-05-06 11:51
Airport Shanghai Pudong International Airport (ZSPD)
Time Latitude Longitude Altitude Speed Heading
2026-05-06 11:41 31.30343 121.98563 6053 ft 260 kts 279°
2026-05-06 11:41 31.30701 121.96478 6046 ft 264 kts 279°
2026-05-06 11:41 31.31064 121.94364 5909 ft 269 kts 279°
2026-05-06 11:41 31.31436 121.92194 5555 ft 274 kts 279°
2026-05-06 11:42 31.31810 121.90019 5225 ft 274 kts 279°
2026-05-06 11:42 31.32183 121.87844 4892 ft 273 kts 279°
2026-05-06 11:42 31.32555 121.85669 4552 ft 273 kts 278°
2026-05-06 11:42 31.32925 121.83504 4230 ft 272 kts 279°
2026-05-06 11:43 31.33295 121.81342 3957 ft 270 kts 278°
2026-05-06 11:43 31.33656 121.79229 3834 ft 261 kts 278°
2026-05-06 11:43 31.34194 121.77257 3628 ft 256 kts 298°
2026-05-06 11:44 31.36986 121.74714 3321 ft 250 kts 329°
2026-05-06 11:44 31.38469 121.73759 3284 ft 238 kts 329°
2026-05-06 11:44 31.39778 121.72585 3269 ft 241 kts 302°
2026-05-06 11:44 31.40372 121.70832 3270 ft 228 kts 269°
2026-05-06 11:45 31.40049 121.69114 3236 ft 214 kts 234°
2026-05-06 11:45 31.38975 121.68026 3247 ft 205 kts 198°
2026-05-06 11:45 31.37569 121.67932 3247 ft 207 kts 163°
2026-05-06 11:45 31.36331 121.68815 3027 ft 218 kts 141°
2026-05-06 11:46 31.35167 121.69875 3007 ft 211 kts 149°
2026-05-06 11:46 31.33909 121.70775 2985 ft 210 kts 153°
2026-05-06 11:46 31.32598 121.71539 2986 ft 213 kts 156°
2026-05-06 11:46 31.31247 121.72259 2990 ft 214 kts 159°
2026-05-06 11:47 31.29872 121.72864 2944 ft 213 kts 162°
2026-05-06 11:47 31.28447 121.73415 2643 ft 216 kts 163°
2026-05-06 11:47 31.27032 121.73951 2381 ft 212 kts 163°
2026-05-06 11:47 31.25654 121.74474 2099 ft 204 kts 163°
2026-05-06 11:48 31.24384 121.74956 1822 ft 180 kts 163°
2026-05-06 11:48 31.23279 121.75376 1614 ft 160 kts 162°
2026-05-06 11:48 31.22268 121.75759 1411 ft 147 kts 162°
2026-05-06 11:48 31.21316 121.76123 1238 ft 145 kts 162°
2026-05-06 11:49 31.20374 121.76480 1035 ft 140 kts 161°
2026-05-06 11:49 31.19470 121.76823 823 ft 136 kts 160°
2026-05-06 11:49 31.18566 121.77190 655 ft 138 kts 161°
2026-05-06 11:49 31.17643 121.77529 545 ft 142 kts 163°
2026-05-06 11:50 31.16695 121.77878 403 ft 148 kts 162°
2026-05-06 11:50 31.15707 121.78241 141 ft 145 kts 159°
2026-05-06 11:50 31.14780 121.78605 27 ft 133 kts 160°
2026-05-06 11:50 31.14046 121.78888 28 ft 86 kts 162°
2026-05-06 11:51 31.13658 121.79039 27 ft 32 kts 157°
2026-05-06 11:51 31.13568 121.79100 28 ft 17 kts 141°
2026-05-06 11:51 31.13446 121.79232 28 ft 25 kts 137°
2026-05-06 11:51 31.13336 121.79378 28 ft 23 kts 109°
2026-05-06 11:52 31.13362 121.79562 27 ft 23 kts 73°
2026-05-06 11:52 31.13410 121.79739 27 ft 18 kts 72°
2026-05-06 11:52 31.13416 121.79759 27 ft 0 kts 72°
2026-05-06 11:52 31.13424 121.79788 27 ft 13 kts 72°
2026-05-06 11:53 31.13473 121.79894 27 ft 16 kts 29°
2026-05-06 11:53 31.13579 121.79887 27 ft 16 kts 343°
2026-05-06 11:53 31.13683 121.79848 28 ft 16 kts 342°
2026-05-06 11:53 31.13786 121.79808 28 ft 16 kts 342°
2026-05-06 11:54 31.13889 121.79768 28 ft 16 kts 342°
2026-05-06 11:54 31.13993 121.79728 28 ft 16 kts 342°
2026-05-06 11:54 31.14096 121.79688 28 ft 16 kts 342°
2026-05-06 11:54 31.14200 121.79649 28 ft 16 kts 342°
2026-05-06 11:55 31.14303 121.79609 28 ft 16 kts 342°
2026-05-06 11:55 31.14407 121.79570 28 ft 16 kts 342°
2026-05-06 11:55 31.14511 121.79531 28 ft 16 kts 342°
2026-05-06 11:55 31.14615 121.79492 28 ft 16 kts 342°
2026-05-06 11:56 31.14719 121.79454 28 ft 16 kts 343°
2026-05-06 11:56 31.14823 121.79417 28 ft 16 kts 343°
2026-05-06 11:56 31.14908 121.79476 28 ft 16 kts 64°
2026-05-06 11:56 31.14964 121.79585 28 ft 16 kts 57°
2026-05-06 11:57 31.14997 121.79675 28 ft 0 kts 71°
2026-05-06 11:57 31.14999 121.79682 28 ft 2 kts 71°
2026-05-06 11:57 31.15003 121.79697 28 ft 2 kts 71°
2026-05-06 11:57 31.15004 121.79701 28 ft 0 kts 72°